Weather History for Pinedale, WY

Change the Weather History Date:

Tuesday, November 20, 2012

  Actual Average (KBPI) Record (KBPI)
Temperature  
Mean Temperature 32 °F 21 °F  
Max Temperature 42 °F 35 °F 54 °F (1989)
Min Temperature 23 °F 8 °F -7 °F (2011)
Degree Days  
Heating Degree Days 32 44  
Month to date heating degree days 771  
Since 1 July heating degree days 2351  
Cooling Degree Days 0 0  
Month to date cooling degree days 0  
Year to date cooling degree days 35  
Moisture  
Dew Point 29 °F    
Average Humidity 91    
Maximum Humidity 100    
Minimum Humidity 66    
Precipitation  
Precipitation 0.00 in 0.01 in 0.04 in (2013)
Month to date precipitation 0.15  
Year to date precipitation 6.12  
Sea Level Pressure  
Sea Level Pressure 30.23 in    
Wind  
Wind Speed 3 mph (NNW)    
Max Wind Speed 7 mph    
Max Gust Speed -    
Visibility 9 miles    
Events      
T = Trace of Precipitation, MM = Missing Value Source: NWS Daily Summary

Daily Weather History Graph

Daily Weather History Graph

Search for Another Location

Airport:

Trip Planner

Search our weather history database for the weather conditions in past years. The results will help you decide how hot, cold, wet, or windy it might be!

Date:

Astronomy

Nov. 20, 2012 Rise Set
Actual Time 7:18 AM MST 4:51 PM MST
Civil Twilight 6:47 AM MST 5:22 PM MST
Nautical Twilight 6:12 AM MST 5:57 PM MST
Astronomical Twilight 5:38 AM MST 6:30 PM MST
Moon 12:48 PM MST (11/20) No Moon Set
Length of Visible Light 10h 35m
Length of Day
9h 33m
First Quarter, 52% of the Moon is Illuminated
Nov 20
First Quarter
Nov 28
Full
Dec 6
Last Quarter
Dec 13
New
Dec 19
First Quarter

Hourly Weather History & Observations

Time (MST) Temp. Windchill Dew Point Humidity Pressure Visibility Wind Dir Wind Speed Gust Speed Precip Events Conditions
12:15 AM 28.4 °F 24.6 °F 28.4 °F 100% 30.30 in 5.0 mi WNW 3.5 mph - N/A   Clear
12:35 AM 28.4 °F 24.6 °F 28.4 °F 100% 30.29 in 1.8 mi NW 3.5 mph - N/A   Mist
12:55 AM 26.6 °F 20.0 °F 26.6 °F 100% 30.29 in 5.0 mi WNW 5.8 mph - N/A   Mostly Cloudy
1:15 AM 26.6 °F 21.2 °F 26.6 °F 100% 30.29 in 2.5 mi West 4.6 mph - N/A   Scattered Clouds
1:35 AM 26.6 °F 21.2 °F 26.6 °F 100% 30.28 in 0.8 mi WNW 4.6 mph - N/A   Mostly Cloudy
5:15 AM 26.6 °F 19.1 °F 26.6 °F 100% 30.28 in 10.0 mi WNW 6.9 mph - N/A   Scattered Clouds
5:35 AM 26.6 °F 21.2 °F 26.6 °F 100% 30.27 in 10.0 mi WNW 4.6 mph - N/A   Scattered Clouds
5:55 AM 24.8 °F 19.1 °F 24.8 °F 100% 30.28 in 10.0 mi NNW 4.6 mph - N/A   Clear
6:15 AM 24.8 °F 17.9 °F 24.8 °F 100% 30.27 in 10.0 mi WNW 5.8 mph - N/A   Clear
6:35 AM 23.0 °F 15.8 °F 23.0 °F 100% 30.27 in 10.0 mi NW 5.8 mph - N/A   Clear
6:55 AM 23.0 °F 17.0 °F 23.0 °F 100% 30.27 in 10.0 mi NW 4.6 mph - N/A   Clear
7:15 AM 23.0 °F - 23.0 °F 100% 30.27 in 10.0 mi Calm Calm - N/A   Clear
7:35 AM 23.0 °F 17.0 °F 23.0 °F 100% 30.29 in 10.0 mi WNW 4.6 mph - N/A   Clear
7:55 AM 23.0 °F 18.4 °F 23.0 °F 100% 30.29 in 10.0 mi SSW 3.5 mph - N/A   Clear
8:15 AM 26.6 °F - 26.6 °F 100% 30.29 in 10.0 mi Calm Calm - N/A   Clear
8:35 AM 26.6 °F - 26.6 °F 100% 30.29 in 10.0 mi Calm Calm - N/A   Clear
8:55 AM 28.4 °F 24.6 °F 28.4 °F 100% 30.29 in 10.0 mi East 3.5 mph - N/A   Clear
9:15 AM 30.2 °F - 30.2 °F 100% 30.29 in 10.0 mi Calm Calm - N/A   Clear
9:35 AM 32.0 °F 28.7 °F 30.2 °F 93% 30.29 in 10.0 mi East 3.5 mph - N/A   Clear
9:55 AM 32.0 °F - 32.0 °F 100% 30.29 in 10.0 mi Calm Calm - N/A   Clear
10:15 AM 32.0 °F 28.7 °F 32.0 °F 100% 30.29 in 10.0 mi SE 3.5 mph - N/A   Clear
10:35 AM 33.8 °F 29.6 °F 32.0 °F 93% 30.29 in 10.0 mi SE 4.6 mph - N/A   Clear
10:55 AM 35.6 °F 30.7 °F 32.0 °F 87% 30.29 in 10.0 mi SSE 5.8 mph - N/A   Scattered Clouds
11:35 AM 37.4 °F 32.1 °F 32.0 °F 81% 30.27 in 10.0 mi SE 6.9 mph - N/A   Clear
11:55 AM 37.4 °F 32.8 °F 32.0 °F 81% 30.27 in 10.0 mi SSE 5.8 mph - N/A   Clear
12:15 PM 37.4 °F 33.8 °F 32.0 °F 81% 30.26 in 10.0 mi ESE 4.6 mph - N/A   Clear
12:35 PM 37.4 °F 32.8 °F 32.0 °F 81% 30.25 in 10.0 mi SE 5.8 mph - N/A   Clear
1:15 PM 41.0 °F 39.0 °F 32.0 °F 70% 30.24 in 10.0 mi ESE 3.5 mph - N/A   Clear
1:35 PM 41.0 °F 39.0 °F 32.0 °F 70% 30.23 in 10.0 mi SE 3.5 mph - N/A   Clear
1:55 PM 41.0 °F 39.0 °F 32.0 °F 70% 30.22 in 10.0 mi East 3.5 mph - N/A   Clear
2:15 PM 41.0 °F 39.0 °F 32.0 °F 70% 30.21 in 10.0 mi ENE 3.5 mph - N/A   Clear
2:35 PM 42.8 °F - 32.0 °F 66% 30.21 in 10.0 mi Calm Calm - N/A   Clear
2:55 PM 42.8 °F 41.1 °F 32.0 °F 66% 30.21 in 10.0 mi East 3.5 mph - N/A   Clear
3:15 PM 42.8 °F 40.1 °F 32.0 °F 66% 30.19 in 10.0 mi East 4.6 mph - N/A   Clear
3:35 PM 42.8 °F 39.3 °F 32.0 °F 66% 30.19 in 10.0 mi ENE 5.8 mph - N/A   Clear
3:55 PM 41.0 °F 38.0 °F 32.0 °F 70% 30.19 in 10.0 mi East 4.6 mph - N/A   Clear
4:15 PM 41.0 °F 39.0 °F 32.0 °F 70% 30.19 in 10.0 mi SE 3.5 mph - N/A   Clear
4:35 PM 37.4 °F 34.9 °F 32.0 °F 81% 30.19 in 10.0 mi ESE 3.5 mph - N/A   Clear
4:55 PM 37.4 °F - 32.0 °F 81% 30.19 in 10.0 mi Calm Calm - N/A   Clear
5:15 PM 35.6 °F - 32.0 °F 87% 30.19 in 10.0 mi Calm Calm - N/A   Clear
5:35 PM 35.6 °F - 32.0 °F 87% 30.18 in 10.0 mi Calm Calm - N/A   Clear
5:55 PM 32.0 °F - 30.2 °F 93% 30.19 in 10.0 mi Calm Calm - N/A   Scattered Clouds
6:15 PM 32.0 °F - 32.0 °F 100% 30.18 in 10.0 mi Calm Calm - N/A   Mostly Cloudy
6:35 PM 32.0 °F 28.7 °F 32.0 °F 100% 30.18 in 10.0 mi NNE 3.5 mph - N/A   Overcast
6:55 PM 32.0 °F 28.7 °F 30.2 °F 93% 30.18 in 10.0 mi NE 3.5 mph - N/A   Mostly Cloudy
7:15 PM 32.0 °F - 32.0 °F 100% 30.18 in 10.0 mi Calm Calm - N/A   Mostly Cloudy
7:35 PM 30.2 °F 24.3 °F 30.2 °F 100% 30.19 in 10.0 mi West 5.8 mph - N/A   Scattered Clouds
7:55 PM 30.2 °F 25.4 °F 30.2 °F 100% 30.18 in 10.0 mi NW 4.6 mph - N/A   Clear
8:15 PM 30.2 °F 26.7 °F 30.2 °F 100% 30.18 in 10.0 mi West 3.5 mph - N/A   Clear
8:35 PM 30.2 °F 26.7 °F 30.2 °F 100% 30.18 in 10.0 mi NW 3.5 mph - N/A   Clear
8:55 PM 30.2 °F - 30.2 °F 100% 30.17 in 10.0 mi Calm Calm - N/A   Scattered Clouds
9:15 PM 30.2 °F 26.7 °F 28.4 °F 93% 30.17 in 10.0 mi NW 3.5 mph - N/A   Clear
9:35 PM 28.4 °F 24.6 °F 28.4 °F 100% 30.16 in 10.0 mi West 3.5 mph - N/A   Clear
9:55 PM 28.4 °F 24.6 °F 28.4 °F 100% 30.16 in 10.0 mi West 3.5 mph - N/A   Clear
10:15 PM 28.4 °F - 28.4 °F 100% 30.15 in 10.0 mi Calm Calm - N/A   Clear
10:35 PM 28.4 °F - 28.4 °F 100% 30.15 in 10.0 mi Calm Calm - N/A   Scattered Clouds
10:55 PM 28.4 °F 24.6 °F 28.4 °F 100% 30.14 in 10.0 mi NW 3.5 mph - N/A   Scattered Clouds
11:15 PM 26.6 °F - 26.6 °F 100% 30.14 in 10.0 mi Calm Calm - N/A   Scattered Clouds
11:35 PM 28.4 °F - 26.6 °F 93% 30.14 in 10.0 mi Calm Calm - N/A   Scattered Clouds
11:55 PM 28.4 °F - 26.6 °F 93% 30.14 in 10.0 mi Calm Calm - N/A   Mostly Cloudy